Miscellaneous Local Product
Issued by NWS North Platte, NE

Home | Current Version | Previous Version | Text Only | Print | Product List | Glossary On
Versions: 1 2 3 4 5 6 7 8 9 10 11 12 13 14 15 16 17 18 19 20 21 22 23 24 25 26 27 28 29 30 31 32 33 34 35 36 37 38 39 40 41 42 43 44 45 46 47 48 49 50
034
AXUS43 KLBF 300710
MISLBF


WESTERN AND NORTH CENTRAL NEBRASKA HOURLY WEATHER ROUNDUP
NATIONAL WEATHER SERVICE NORTH PLATTE NE
200 AM CDT TUE AUG 30 2016

NOTE: "FAIR" INDICATES FEW OR NO CLOUDS BELOW 12,000 FEET WITH NO
SIGNIFICANT WEATHER AND/OR OBSTRUCTIONS TO VISIBILITY.

NOTE: STATIONS NOT REPORTING VARIABLES SUCH AS SKY/WEATHER OR
PRESSURE ARE PROVIDED BY RAWS AND APRS NETWORKS AND ARE NOT UNDER
NATIONAL WEATHER SERVICE QUALITY CONTROL.

...OBSERVATIONS IN AND NEAR THE EASTERN PANHANDLE OF NEBRASKA...

CITY           SKY/WX    TMP DP  RH WIND       PRES   REMARKS
PINE RIDGE     CLEAR     59  58  96 CALM      30.24F
CHADRON        CLEAR     59  55  87 W5        30.25S
ALLIANCE       PTCLDY    60  57  89 CALM      30.26F
SIDNEY         CLOUDY    62  59  90 SE5       30.30R
CRESCENT LAKE    N/A     64  61  89 CALM        N/A
$$

...OBSERVATIONS IN NORTHERN NEBRASKA AND FAR SOUTHERN SOUTH DAKOTA...

CITY           SKY/WX    TMP DP  RH WIND       PRES   REMARKS
WINNER         FAIR      72  64  76 S8        30.18S
VALENTINE      CLOUDY    64  60  87 W5        30.21S
THEDFORD       CLOUDY    66  63  92 CALM      30.25S
AINSWORTH      CLOUDY    66  64  94 SW3       30.22S
O`NEILL        CLOUDY    70  66  86 SE12      30.22F
ORD            CLOUDY    69  65  86 CALM      30.19F
BROKEN BOW     CLOUDY    66  66 100 CALM      30.23S
VALENTINE NWR    N/A     64  61  91 CALM        N/A
BUTTE            N/A     67  65  92 SE10        N/A
HALSEY           N/A     69  63  82 S3          N/A
EWING            N/A     67  66  96 CALM        N/A
$$

...OBSERVATIONS IN SOUTHWEST NEBRASKA AND FAR NORTHEAST COLORADO...

CITY           SKY/WX    TMP DP  RH WIND       PRES   REMARKS
WRAY           CLOUDY    64  61  88 SE8       30.28
HOLYOKE        FAIR      64  61  88 S3        30.28S
IMPERIAL       CLOUDY    67  62  84 S5        30.25S
NORTH PLATTE   LGT RAIN  69  66  90 S6        30.24S
MCCOOK         CLOUDY    69  66  90 CALM      30.23S
LEXINGTON      DRIZZLE   68  66  93 S3        30.23F
STAPLETON        N/A     65  63  92 CALM        N/A
GOTHENBURG       N/A     70  64  82 SE3         N/A
CALLAWAY         N/A     66  65  96 S3          N/A
$$

...OBSERVATIONS IN CENTRAL LINCOLN COUNTY AREA...

CITY           SKY/WX    TMP DP  RH WIND       PRES   REMARKS
N.P. AIRPORT   LGT RAIN  69  66  90 S6        30.24S
N.P. DOWNTOWN    N/A     69  66  91 CALM        N/A
N.P. SOUTHEAST   N/A     68  65  90 CALM        N/A
N.P. HILLCREST   N/A     68  65  92 CALM        N/A
$$

...SOME OBSERVATIONS FROM AROUND THE REGION...

CITY           SKY/WX    TMP DP  RH WIND       PRES   REMARKS
DENVER         CLOUDY    57  49  74 N7        30.35R
LARAMIE        CLOUDY    48  38  68 NW3       30.45R
CHEYENNE       CLOUDY    56  42  59 W6        30.38F
SCOTTSBLUFF    CLEAR     61  57  87 NE6       30.28R
RAPID CITY     CLEAR     62  59  90 CALM      30.26S
BISMARCK       CLEAR     55  49  80 NE9       30.25S
PIERRE         CLOUDY    67  59  75 NE10      30.17S
SIOUX FALLS    PTCLDY    71  67  87 CALM      30.18R
OMAHA          CLOUDY    71  67  87 S7        30.17F
GRAND ISLAND   LGT RAIN  69  67  93 E6        30.22F
KANSAS CITY    CLOUDY    73  69  87 N8        30.17R
WICHITA        CLOUDY    77  70  79 E3        30.15S
OKLAHOMA CITY  PTCLDY    75  70  84 E3        30.11F
DALLAS         MOCLDY    77  69  76 SE5       30.05S
AMARILLO       CLOUDY    64  63  96 N7        30.26F
DODGE CITY     LGT RAIN  69  67  93 SE3       30.22F FOG
HAYS           CLOUDY    66  59  77 CALM      30.22S
GOODLAND       PTCLDY    61  58  90 S6        30.27S
$$




USA.gov is the U.S. government's official web portal to all federal, state and local government web resources and services.